Location: Unspecified
(0.0000°N, 0.0000°E)
Time: 18:11:01
(UTC+00:00)

Altair - All Passes

Search period start: 24 April 2024 00:00
Search period end: 04 May 2024 00:00
Orbit: 1501 x 1682 km, 47.2° (Epoch: 23 April)

Date Brightness Start Highest point End Pass type
(mag) Time Alt. Az. Time Alt. Az. Time Alt. Az.
24 Apr - 00:43:39 10° N 00:49:24 18° NE 00:55:02 10° E night (unlit)
24 Apr - 02:44:54 10° NW 02:54:11 87° SW 03:03:23 10° SE visible
24 Apr - 04:53:59 10° W 04:58:59 16° SW 05:04:01 10° SSW visible
24 Apr - 13:29:46 10° SSW 13:39:01 42° SE 13:48:22 10° ENE daylight
24 Apr - 15:34:18 10° WSW 15:43:42 44° NW 15:53:10 10° NNE daylight
25 Apr - 00:19:10 10° NNE 00:24:06 15° NE 00:28:59 10° ENE night (unlit)
25 Apr - 02:19:42 10° NW 02:29:01 84° NE 02:38:12 10° SE visible
25 Apr - 04:27:57 10° W 04:33:43 18° SW 04:39:31 10° S visible
25 Apr - 13:04:48 10° SSW 13:13:46 38° SE 13:22:50 10° ENE daylight
25 Apr - 15:08:52 10° WSW 15:18:27 49° NW 15:28:08 10° NNE daylight
25 Apr - 23:54:53 10° NNE 23:58:48 13° NE 00:02:40 10° ENE night (unlit)
26 Apr - 01:54:32 10° NW 02:03:51 76° NE 02:13:00 10° SE visible
26 Apr - 04:02:03 10° W 04:08:27 21° SW 04:14:53 10° S visible
26 Apr - 12:39:52 10° SSW 12:48:30 33° SE 12:57:15 10° ENE daylight
26 Apr - 14:43:29 10° SW 14:53:12 55° NW 15:03:04 10° NNE daylight
26 Apr - 23:31:07 10° NNE 23:33:28 11° NE 23:35:48 10° ENE night (unlit)
27 Apr - 01:29:24 10° NNW 01:38:41 68° NE 01:47:45 10° SE night (unlit)
27 Apr - 03:36:16 10° W 03:43:13 24° SW 03:50:11 10° S visible
27 Apr - 12:14:59 10° S 12:23:15 30° SE 12:31:37 10° ENE daylight
27 Apr - 14:18:07 10° SW 14:27:58 62° NW 14:37:57 10° NNE daylight
27 Apr - 16:31:37 10° NW 16:33:29 11° NW 16:35:21 10° NNW daylight
28 Apr - 01:04:17 10° NNW 01:13:29 60° NE 01:22:29 10° SE night (unlit)
28 Apr - 03:10:34 10° WNW 03:17:58 27° SW 03:25:23 10° S visible
28 Apr - 11:50:10 10° S 11:57:58 26° SE 12:05:54 10° E daylight
28 Apr - 13:52:48 10° SW 14:02:43 69° NW 14:12:48 10° NNE daylight
28 Apr - 16:04:15 10° WNW 16:08:06 13° NW 16:11:59 10° NNW daylight
29 Apr - 00:39:12 10° NNW 00:48:18 54° NE 00:57:10 10° SE night (unlit)
29 Apr - 02:44:57 10° WNW 02:52:46 31° SW 03:00:33 10° S visible
29 Apr - 11:25:24 10° S 11:32:42 23° SE 11:40:05 10° E daylight
29 Apr - 13:27:32 10° SW 13:37:30 76° NW 13:47:38 10° NE daylight
29 Apr - 15:37:42 10° WNW 15:42:44 15° NW 15:47:48 10° NNW daylight
30 Apr - 00:14:09 10° NNW 00:23:06 48° NE 00:31:49 10° ESE night (unlit)
30 Apr - 02:19:23 10° WNW 02:27:34 35° SW 02:35:41 10° SSE night (unlit)
30 Apr - 11:00:43 10° S 11:07:24 20° SE 11:14:11 10° E daylight
30 Apr - 13:02:18 10° SW 13:12:15 84° NW 13:22:26 10° NE daylight
30 Apr - 15:11:28 10° W 15:17:23 17° NW 15:23:22 10° N daylight
30 Apr - 23:49:07 10° NNW 23:57:54 42° NE 00:06:26 10° ESE night (unlit)
01 May - 01:53:53 10° WNW 02:02:22 39° SW 02:10:45 10° SSE night (unlit)
01 May - 10:36:09 10° S 10:42:06 17° SE 10:48:08 10° E daylight
01 May - 12:37:06 10° SW 12:47:02 88° SE 12:57:12 10° NE daylight
01 May - 14:45:26 10° W 14:52:03 19° NW 14:58:46 10° N daylight
01 May - 23:24:08 10° NNW 23:32:42 38° NE 23:41:00 10° ESE visible
02 May - 01:28:26 10° WNW 01:37:10 45° SW 01:45:48 10° SSE night (unlit)
02 May - 10:11:44 10° SSE 10:16:48 15° SE 10:21:54 10° ESE daylight
02 May - 12:11:55 10° SW 12:21:48 80° SE 12:31:56 10° NE daylight
02 May - 14:19:32 10° W 14:26:44 22° NW 14:34:04 10° N daylight
02 May - 22:59:10 10° NNW 23:07:28 33° NE 23:15:31 10° ESE visible
03 May - 01:03:00 10° WNW 01:11:59 50° SW 01:20:48 10° SSE night (unlit)
03 May - 09:47:35 10° SSE 09:51:28 13° SE 09:55:22 10° ESE daylight
03 May - 11:46:47 10° SSW 11:56:35 72° SE 12:06:38 10° NE daylight
03 May - 13:53:45 10° W 14:01:26 25° NW 14:09:16 10° N daylight
03 May - 22:34:15 10° N 22:42:14 30° NE 22:49:58 10° ESE visible
